Weather History for KDRA - September, 2013

Change the Weather History Date:

Saturday, September 28, 2013

  Actual Average Record
Temperature  
Mean Temperature 62 °F -  
Max Temperature 78 °F 85 °F 100 °F (2010)
Min Temperature 46 °F 55 °F 46 °F (2013)
Degree Days  
Heating Degree Days 3    
Growing Degree Days 12 (Base 50)    
Moisture  
Dew Point 18 °F    
Average Humidity 18    
Maximum Humidity 33    
Minimum Humidity 4    
Precipitation  
Precipitation 0.00 in - - ()
Sea Level Pressure  
Sea Level Pressure 30.04 in    
Wind  
Wind Speed 5 mph (East)    
Max Wind Speed 8 mph    
Max Gust Speed -    
Visibility 10 miles    
Events      
Averages and records for this station are not official NWS values.
T = Trace of Precipitation, MM = Missing Value Source: NWS Daily Summary

Daily Weather History Graph

Daily Weather History Graph

Search for Another Location

Airport or City:

Trip Planner

Search our weather history database for the weather conditions in past years. The results will help you decide how hot, cold, wet, or windy it might be!

Date:

Astronomy

Sep. 28, 2013 Rise Set
Actual Time 6:37 AM PDT 6:31 PM PDT
Civil Twilight 6:11 AM PDT 6:57 PM PDT
Nautical Twilight 5:41 AM PDT 7:27 PM PDT
Astronomical Twilight 5:11 AM PDT 7:57 PM PDT
Moon 12:36 AM PDT (9/28) 2:45 PM PDT (9/28)
Length of Visible Light 12h 45m
Length of Day
11h 54m
Waning Crescent, 35% of the Moon is Illuminated
Sep 28
Waning Crescent
Oct 4
New
Oct 11
First Quarter
Oct 18
Full
Oct 26
Last Quarter

Hourly Weather History & Observations

Time (PDT) Temp. Dew Point Humidity Pressure Visibility Wind Dir Wind Speed Gust Speed Precip Events Conditions
12:52 AM 54.0 °F 19.9 °F 26% 30.04 in 10.0 mi ESE 5.8 mph - N/A   Clear
1:52 AM 57.0 °F 19.9 °F 24% 30.04 in 10.0 mi NNE 4.6 mph - N/A   Clear
2:52 AM 51.1 °F 19.9 °F 29% 30.03 in 10.0 mi Calm Calm - N/A   Clear
3:52 AM 50.0 °F 19.9 °F 31% 30.04 in 10.0 mi East 3.5 mph - N/A   Clear
4:52 AM 48.9 °F 19.9 °F 32% 30.05 in 10.0 mi ESE 3.5 mph - N/A   Clear
5:52 AM 48.0 °F 19.9 °F 33% 30.06 in 10.0 mi ESE 3.5 mph - N/A   Clear
6:52 AM 48.9 °F 21.0 °F 33% 30.08 in 10.0 mi North 5.8 mph - N/A   Clear
7:52 AM 57.9 °F 21.0 °F 24% 30.09 in 10.0 mi NE 8.1 mph - N/A   Clear
8:52 AM 64.0 °F 19.9 °F 18% 30.09 in 10.0 mi NE 6.9 mph - N/A   Clear
9:52 AM 66.0 °F 19.9 °F 17% 30.10 in 10.0 mi Calm Calm - N/A   Clear
10:52 AM 69.1 °F 19.0 °F 15% 30.09 in 10.0 mi SE 3.5 mph - N/A   Clear
11:52 AM 73.0 °F 18.0 °F 12% 30.07 in 10.0 mi SE 8.1 mph - N/A   Clear
12:52 PM 73.9 °F 17.1 °F 12% 30.06 in 10.0 mi East 8.1 mph - N/A   Clear
1:52 PM 75.9 °F 15.1 °F 10% 30.03 in 10.0 mi ENE 4.6 mph - N/A   Clear
2:52 PM 77.0 °F 15.1 °F 10% 30.02 in 10.0 mi Variable 3.5 mph - N/A   Clear
3:52 PM 77.0 °F 17.1 °F 10% 30.00 in 10.0 mi South 3.5 mph - N/A   Clear
4:52 PM 77.0 °F 16.0 °F 10% 30.00 in 10.0 mi WSW 6.9 mph - N/A   Clear
5:52 PM 75.0 °F 16.0 °F 11% 30.00 in 10.0 mi WSW 5.8 mph - N/A   Clear
6:52 PM 70.0 °F 15.1 °F 12% 30.01 in 10.0 mi WSW 3.5 mph - N/A   Clear
7:52 PM 64.9 °F 15.1 °F 15% 30.02 in 10.0 mi ESE 4.6 mph - N/A   Clear
8:52 PM 61.0 °F 17.1 °F 18% 30.02 in 10.0 mi SE 3.5 mph - N/A   Clear
9:52 PM 60.1 °F 18.0 °F 20% 30.04 in 10.0 mi ENE 3.5 mph - N/A   Clear
10:52 PM 57.0 °F 18.0 °F 22% 30.05 in 10.0 mi East 4.6 mph - N/A   Clear
11:52 PM 55.0 °F 18.0 °F 23% 30.04 in 10.0 mi East 5.8 mph - N/A   Clear